Change the Weather History Date:

Sunday, March 10, 2013

  Actual Average Record
Temperature  
Mean Temperature 11 °F 10 °F  
Max Temperature 24 °F 18 °F 40 °F (1984)
Min Temperature -2 °F - -43 °F (1971)
Degree Days  
Heating Degree Days 54 55  
Month to date heating degree days 466 557  
Since 1 July heating degree days 10007 9839  
Cooling Degree Days 0    
Month to date cooling degree days 0  
Year to date cooling degree days 0  
Moisture  
Dew Point 7 °F    
Average Humidity 0    
Maximum Humidity 0    
Minimum Humidity 0    
Precipitation  
Precipitation 0.00 in 0.02 in 0.87 in (1907)
Month to date precipitation 0.51 0.24  
Year to date precipitation 2.03 2.11  
Snow  
Snow 0.00 in 0.30 in 7.50 in (1907)
Month to date snowfall 5.3 3.5  
Since 1 July snowfall 46.6 60.2  
Snow Depth 28.00 in    
Sea Level Pressure  
Sea Level Pressure 30.24 in    
Wind  
Wind Speed 7 mph (WNW)    
Max Wind Speed 14 mph    
Max Gust Speed 16 mph    
Visibility 10 miles    
Events      
T = Trace of Precipitation, MM = Missing Value Source: NWS Daily Summary

Daily Weather History Graph

Daily Weather History Graph

Search for Another Location

Airport or City:

Trip Planner

Search our weather history database for the weather conditions in past years. The results will help you decide how hot, cold, wet, or windy it might be!

Date:

Astronomy

Mar. 10, 2013 Rise Set
Actual Time 9:36 AM AKDT 8:48 PM AKDT
Civil Twilight 8:48 AM AKDT 9:37 PM AKDT
Nautical Twilight 7:51 AM AKDT 10:34 PM AKDT
Astronomical Twilight 6:50 AM AKDT 11:35 PM AKDT
Moon 8:53 AM AKDT (3/10) 8:11 PM AKDT (3/10)
Length of Visible Light 12h 48m
Length of Day
11h 12m
Waning Crescent, 1% of the Moon is Illuminated
Mar 10
Waning Crescent
Mar 11
New
Mar 19
First Quarter
Mar 27
Full
Apr 2
Last Quarter

Hourly Weather History & Observations

Time (AKDT) Temp. Windchill Dew Point Humidity Pressure Visibility Wind Dir Wind Speed Gust Speed Precip Events Conditions
12:24 AM 24.8 °F 16.9 °F 21.2 °F 86% 29.80 in 10.0 mi NNE 6.9 mph - N/A   Overcast
12:53 AM 24.1 °F 14.4 °F 21.0 °F 88% 29.82 in 10.0 mi NNE 9.2 mph - N/A   Overcast
1:53 AM 24.1 °F 17.0 °F 19.9 °F 84% 29.86 in 10.0 mi North 5.8 mph - N/A   Overcast
3:38 AM 21.2 °F 12.6 °F 17.6 °F 86% 29.89 in 10.0 mi West 6.9 mph - N/A   Overcast
4:53 AM 18.0 °F 9.8 °F 14.0 °F 84% 29.94 in 10.0 mi NNW 5.8 mph - N/A   Mostly Cloudy
5:53 AM 12.9 °F 0.7 °F 9.0 °F 84% 29.99 in 10.0 mi West 9.2 mph - N/A   Mostly Cloudy
6:53 AM 15.1 °F 5.2 °F 10.0 °F 80% 30.05 in 10.0 mi NW 6.9 mph - N/A   Scattered Clouds
7:53 AM 14.0 °F 1.2 °F 9.0 °F 80% 30.07 in 10.0 mi WNW 10.4 mph - N/A   Partly Cloudy
8:53 AM 12.0 °F 0.5 °F 7.0 °F 80% 30.10 in 10.0 mi WNW 8.1 mph - N/A   Partly Cloudy
9:53 AM 10.9 °F -2.6 °F 6.1 °F 81% 30.16 in 10.0 mi West 10.4 mph - N/A   Partly Cloudy
10:53 AM 9.0 °F 2.4 °F 3.9 °F 80% 30.20 in 10.0 mi WSW 3.5 mph - N/A   Partly Cloudy
11:53 AM 12.0 °F 1.5 °F 6.1 °F 77% 30.23 in 10.0 mi WNW 6.9 mph - N/A   Partly Cloudy
12:53 PM 12.0 °F 2.7 °F 6.1 °F 77% 30.27 in 10.0 mi Variable 5.8 mph - N/A   Partly Cloudy
1:53 PM 16.0 °F 6.3 °F 7.0 °F 68% 30.32 in 10.0 mi Variable 6.9 mph - N/A   Clear
2:53 PM 16.0 °F 8.8 °F 8.1 °F 71% 30.36 in 10.0 mi WSW 4.6 mph - N/A   Clear
3:53 PM 15.1 °F 3.3 °F 7.0 °F 70% 30.40 in 10.0 mi WSW 9.2 mph - N/A   Clear
4:53 PM 16.0 °F 7.4 °F 6.1 °F 65% 30.41 in 10.0 mi West 5.8 mph - N/A   Clear
5:53 PM 15.1 °F 3.3 °F 3.9 °F 61% 30.45 in 10.0 mi WNW 9.2 mph - N/A   Clear
6:53 PM 12.0 °F 0.5 °F 3.9 °F 70% 30.47 in 10.0 mi West 8.1 mph - N/A   Clear
7:53 PM 8.1 °F 1.4 °F 1.0 °F 73% 30.48 in 10.0 mi SSE 3.5 mph - N/A   Clear
8:53 PM 3.9 °F - -0.9 °F 80% 30.51 in 10.0 mi Calm Calm - N/A   Clear
9:53 PM 7.0 °F -4.5 °F 3.0 °F 84% 30.54 in 10.0 mi ENE 6.9 mph - N/A   Clear
10:53 PM 3.9 °F - -0.0 °F 84% 30.56 in 10.0 mi Calm Calm - N/A   Clear
11:53 PM -0.0 °F -9.9 °F -5.1 °F 79% 30.58 in 10.0 mi WNW 4.6 mph - N/A   Clear
12:53 AM -0.9 °F -15.3 °F -7.1 °F 75% 30.61 in 10.0 mi NW 8.1 mph - N/A   Clear